Location: Marshall
(39.8477°N, 87.1868°W)
Time: 03:22:42
(UTC+00:00)

BlueWalker 3 - Pass Details

Date: 14 May 2026
Orbit: 447 x 456 km, 53.2° (Epoch: 9 June)

Event Time Altitude Azimuth Distance (km) Brightness Sun altitude
Exits shadow 06:32:29 16° 30° (NNE) 1,269 4.7 -30.5°
Drops below altitude 10° 06:33:19 10° 36° (NE) 1,574 5.2 -30.4°
Sets 06:35:34 0° 45° (NE) 2,448 6.3 -30.3°
